Flag for Canada Weather past 2 weeks in Greater Sudbury, Ontario, Canada

Now
45 °F

More clouds than sun.


Feels Like: 38 °F
Forecast: N/A
Wind: 13 mph from Southwest

Location: Sudbury


UV Index: N/A

Visibility: 15 mi


Pressure: 30.17 "Hg

Humidity: 57%

Dew point: 30 °F

Location of Greater SudburyLocation

Historic Weather in Greater Sudbury

°F

Greater Sudbury temperature yesterday

Maximum temperature yesterday: 43 °F (at 4:00 PM)
Minimum temperature yesterday: 28 °F (at 5:00 AM)
Average temperature yesterday: 35 °F

Past Weeks' High & Low Weather Summary

 TemperatureHumidityPressure
High50 °F (Apr 7, 6:00 PM)100% (Apr 13, 4:00 AM)30.61 "Hg (Apr 13, 4:00 AM)
Low7 °F (Apr 16, 4:00 AM)26% (Apr 19, 4:00 PM)29.33 "Hg (Apr 14, 12:00 PM)
Average33 °F69%30.01 "Hg
* Reported Apr 5 5:00 PM — Apr 20 5:00 PM, Greater Sudbury, Weather by CustomWeather, © 2014

Note: Actual official high and low records may vary slightly from our data, if they occured in-between our weather recording intervals... More about our weather records

Advertising

Historic Weather Conditions — Data for Previous 24 hours

 ConditionsComfort  
Time TempWeatherWind HumidityBarometerVisibility
5:00 PM
Apr 20
46 °FMostly cloudy.16 mph53%30.16 "Hg20 mi
4:00 PM46 °FMostly cloudy.16 mph50%30.17 "Hg15 mi
3:00 PM45 °FMore clouds than sun.12 mph57%30.20 "Hg20 mi
2:00 PM41 °FLight rain. Mostly cloudy.9 mph66%30.24 "Hg20 mi
1:00 PM41 °FLight rain. Overcast.14 mph66%30.27 "Hg20 mi
12:00 PM43 °FOvercast.14 mph53%30.29 "Hg20 mi
11:00 AM39 °FMostly cloudy.9 mph65%30.31 "Hg20 mi
10:00 AM37 °FLight rain. Overcast.12 mph70%30.34 "Hg15 mi
9:00 AM36 °FLight rain. Mostly cloudy.10 mph70%30.34 "Hg15 mi
8:00 AM36 °FLight rain. Mostly cloudy.13 mph65%30.35 "Hg15 mi
7:00 AM34 °FMostly cloudy.16 mph56%30.35 "Hg20 mi
6:00 AM34 °FOvercast.10 mph51%30.37 "Hg15 mi
5:00 AM36 °FOvercast.9 mph44%30.38 "Hg15 mi
4:00 AM36 °FOvercast.7 mph44%30.39 "Hg15 mi
3:00 AM36 °FOvercast.7 mph44%30.39 "Hg15 mi
2:00 AM36 °FOvercast.8 mph41%30.39 "Hg15 mi
1:00 AM37 °FPassing clouds.8 mph38%30.41 "Hg15 mi
12:00 AM37 °FPassing clouds.8 mph41%30.41 "Hg15 mi
11:00 PM
Apr 19
37 °FPassing clouds.7 mph38%30.41 "Hg15 mi
10:00 PM39 °FPassing clouds.8 mph39%30.42 "Hg15 mi
9:00 PM41 °FPartly sunny.5 mph36%30.43 "Hg15 mi
8:00 PM41 °FMostly cloudy.2 mph33%30.43 "Hg20 mi
7:00 PM43 °FPartly sunny.5 mph29%30.43 "Hg20 mi
6:00 PM43 °FBroken clouds.7 mph31%30.45 "Hg20 mi
Weather by CustomWeather, © 2014

See weather overview